Regional Weather Roundup
Issued by NWS

Home | Current Version | Previous Version | Text Only | Print | Product List | Glossary Off
Versions: 1 2 3 4 5 6 7 8 9 10 11 12 13 14 15 16 17 18 19 20 21 22 23 24 25 26 27 28 29 30 31 32 33 34 35 36 37 38 39 40 41 42 43 44 45 46 47 48 49 50

494
ASUS43 KDTX 180910
RWRMI
MICHIGAN HOURLY REGIONAL WEATHER ROUNDUP
NATIONAL WEATHER SERVICE DETROIT/PONTIAC MI
400 AM EST SAT NOV 18 2017

NOTE: "FAIR" INDICATES FEW OR NO CLOUDS BELOW 12,000 FEET WITH NO
SIGNIFICANT WEATHER AND/OR OBSTRUCTION TO VISIBILITY.

MIZ047>049-052>055-059>063-066>070-074>076-081>083-181000-
SOUTHEAST LOWER MICHIGAN

CITY           SKY/WX    TMP DP  RH WIND       PRES   REMARKS
ADRIAN         LGT RAIN  42  41  96 CALM      29.59F FOG
ALMA           CLOUDY    41  41  99 S6        29.53F FOG
ANN ARBOR      CLOUDY    41  41 100 S3        29.59F FOG
BAD AXE        LGT RAIN  39  39  98 S6        29.56F WCI  35
CARO           CLOUDY    41  40  98 S6        29.54F
DETROIT CITY   CLOUDY    58  42  55 S7        29.61F
DETROIT        LGT RAIN  42  41  96 CALM      29.61F FOG
FLINT          CLOUDY    42  40  92 S10       29.55F
GROSSE ILE     RAIN      42  41  96 S6        29.60F
HILLSDALE      DRIZZLE   43  41  93 S3        29.56F
HOWELL         CLOUDY    41  41 100 S9        29.55F FOG

CITY           SKY/WX    TMP DP  RH WIND       PRES   REMARKS
JACKSON        CLOUDY    43  41  93 SE5       29.56F FOG
LAMBERTVILLE   LGT RAIN  46  43  90 SW5       29.58F
LANSING        CLOUDY    42  41  96 SW13      29.55F
LAPEER         CLOUDY    42  41  95 SW9       29.56F
MASON          CLOUDY    43  41  93 CALM      29.55F FOG
MONROE         DRIZZLE   44  42  93 CALM      29.59F
MT. CLEMENS    CLOUDY    42  42 100 S13       29.58F
PONTIAC        CLOUDY    40  40 100 S9        29.56F WCI  34
PORT HOPE        N/A     39  38  96 CALM      29.55F
PORT HURON     CLOUDY    41  39  93 S9        29.59F
TRI CITIES     CLOUDY    42  42 100 S6        29.54F
MIDLAND        CLOUDY    41  41  97 S5        29.53F FOG
TROY           CLOUDY    43  41  93 S6        29.61F
SAGINAW HB     CLOUDY    41  39  93 S8        29.54F
$$
MIZ043>046-050>051-056>058-064>065-071>073-077>080-181000-
SOUTHWEST LOWER MICHIGAN

CITY           SKY/WX    TMP DP  RH WIND       PRES   REMARKS
BATTLE CREEK   CLOUDY    42  42 100 S8        29.55F FOG
BENTON HARBOR  CLOUDY    44  42  93 S5        29.53F FOG
BIG RAPIDS     CLOUDY    40  39  95 CALM      29.49F FOG
COLDWATER      CLOUDY    43  43 100 CALM      29.56F FOG
FREMONT        CLOUDY    43  43 100 NW8       29.51S
HOLLAND        CLOUDY    44  43  96 S7        29.52F FOG
GRAND RAPIDS   CLOUDY    43  43 100 S13       29.52F FOG
IONIA          CLOUDY    42  41  97 SW7       29.52F
KALAMAZOO      CLOUDY    43  40  89 S6        29.55F FOG
LUDINGTON      CLOUDY    40  38  92 NW3       29.52S
MARSHALL       DRIZZLE   41  41  99 CALM      29.55F
MOUNT PLEASANT CLOUDY    42  40  95 S6        29.52F FOG
MUSKEGON       CLOUDY    46  42  86 W8        29.53F
SOUTH HAVEN    CLOUDY    44  43  95 S5        29.52F FOG
$$
MIZ016>042-181000-
NORTHERN LOWER MICHIGAN

CITY           SKY/WX    TMP DP  RH WIND       PRES   REMARKS
ALPENA         CLOUDY    35  35 100 CALM      29.54F FOG
BEAVER ISLAND  CLOUDY    39  39 100 CALM      29.53S FOG
BELLAIRE       CLOUDY    37  37 100 CALM      29.53S FOG
CADILLAC       DRIZZLE   39  38  99 CALM      29.49S
CHARLEVOIX     CLOUDY    37  37 100 E5        29.55F FOG     WCI  33
FRANKFORT      CLOUDY    42  40  91 CALM      29.52F
GAYLORD        CLOUDY    33  32  96 SE5       29.50F FOG     WCI  29
GRAYLING       CLOUDY    35  34  95 CALM      29.52S FOG
HARBOR SPRINGS CLOUDY    34  34  99 E5        29.52F FOG     WCI  30
HOUGHTON LAKE  CLOUDY    36  35  96 CALM      29.52S FOG
MANISTEE       CLOUDY    41  38  89 NW5       29.52F
OSCODA         MIX PCPN  39  38  97 S9        29.54F WCI  33
PELLSTON       CLOUDY    34  34 100 E5        29.53F FOG     WCI  30
ROGERS CITY    DRIZZLE   34  33  97 S3        29.55F
TRAVERSE CITY  CLOUDY    39  38  96 CALM      29.52S FOG
$$
MIZ007>008-015-181000-
EASTERN UPPER MICHIGAN

CITY           SKY/WX    TMP DP  RH WIND       PRES   REMARKS
KINROSS        CLOUDY   N/A N/A N/A E3        29.56F
MACKINAC ISLAN CLOUDY    36  36 100 E3        29.54F FOG
NEWBERRY       FOG       32  31  97 CALM      29.54F VSB 3/4
S. S. MARIE    CLOUDY    34  32  92 CALM      29.56F FOG
MUNISING         N/A     39  37  92 N14       29.56R WCI  31
$$
MIZ004>006-011>014-085-181000-
CENTRAL UPPER MICHIGAN

CITY           SKY/WX    TMP DP  RH WIND       PRES   REMARKS
MANISTIQUE     CLOUDY    35  30  83 N9        29.54S WCI  28
ESCANABA       CLOUDY    36  34  92 NW6       29.58S WCI  31
MENOMINEE      CLOUDY    35  33  92 N6        29.59R WCI  30
SAWYER-GWINN   CLOUDY    33  33  98 N7        29.57S FOG     WCI  27
$$
MIZ001>003-009>011-084-181000-
WESTERN UPPER MICHIGAN

CITY           SKY/WX    TMP DP  RH WIND       PRES   REMARKS
IRON MOUNTAIN  CLOUDY    34  31  88 N9        29.57S WCI  27
HOUGHTON       CLOUDY    35  32  88 NW7       29.62R WCI  29
COPPER HARBOR    N/A     38  33  82 NE13      29.60S WCI  30
IRONWOOD       CLOUDY   N/A N/A N/A N3        29.64F HAZE
$$

ABBREVIATIONS USED IN REMARKS
   TC - TEMPERATURE IN CELSIUS
  WCI - WIND CHILL INDEX
   HX - HEAT INDEX
  VSB - VISIBILITY





USA.gov is the U.S. government's official web portal to all federal, state and local government web resources and services.